Location: Ethel
(43.7234°N, 81.1388°W)
Time: 15:48:52
(UTC+00:00)

Daily predictions for brighter satellites

Satellite Brightness Start Highest point End
(mag) Time Altitude Azimuth Time Altitude Azimuth Time Altitude Azimuth
Cosmos 1743 2.3 12:02:37 10° S 12:05:51 86° E 12:09:06 10° N
USA 267 4.3 12:00:18 10° ENE 12:06:40 52° SE 12:12:59 10° SSW
Cosmos 2219 Rocket 2.7 12:03:46 10° NNW 12:09:24 61° ENE 12:14:57 10° SE
SL-08 R/B 4.4 12:05:24 10° SE 12:09:45 45° ENE 12:14:12 10° N
IRIDIUM 103 4.5 12:04:55 10° SSW 12:10:00 55° W 12:15:09 10° N
IRS-1C 4.3 12:05:14 10° NNE 12:10:35 82° ESE 12:15:55 10° SSW
Cosmos 2322 Rocket 2.3 12:05:45 10° NNW 12:11:26 71° WSW 12:17:04 10° SSE
CBERS-1 4.4 12:06:39 10° N 12:11:28 43° WNW 12:16:13 10° SW
Cosmos 1814 Rocket 4.0 12:06:25 10° SSW 12:11:34 64° WNW 12:16:50 10° NNE
Cosmos 1812 Rocket 3.8 12:07:35 10° N 12:11:55 73° E 12:16:13 10° SSE
AQUARIUS 4.3 12:09:08 10° NNE 12:13:34 83° ESE 12:17:58 10° SSW
Cosmos 2058 Rocket 4.1 12:10:25 10° NNW 12:14:10 27° W 12:17:52 10° SSW
Cosmos 2266 Rocket 4.2 12:11:48 10° S 12:18:13 85° E 12:24:35 10° N
Cosmos 2026 Rocket 4.2 22:08:15 10° N 22:14:31 85° W 22:20:49 10° S
Cosmos 1656 4.0 22:10:00 10° S 22:15:19 47° ESE 22:20:44 10° NE
Cosmos 1634 Rocket 4.0 22:10:02 10° S 22:16:12 76° E 22:22:23 10° N
Cosmos 2297 Rocket 2.9 22:11:26 10° N 22:16:25 30° NE 22:21:22 10° ESE
Cosmos 1315 Rocket 2.8 22:13:53 10° SSW 22:17:42 83° WNW 22:21:33 10° N
Meteor 1-27 4.3 22:12:32 10° S 22:18:22 86° E 22:24:10 10° N
BREEZE-M DEB (TANK) 4.1 22:16:03 10° WNW 22:18:31 29° N 22:24:22 10° ENE
Cosmos 1455 Rocket 3.9 22:14:55 10° SSW 22:19:08 54° WNW 22:23:25 10° N
NOSS 3-2 (C) 4.0 22:15:16 10° S 22:19:25 28° ESE 22:24:07 10° NE
NOSS 3-2 (A) 3.1 22:15:44 10° SSW 22:20:35 78° SE 22:26:23 10° NE
Cosmos 1782 3.0 22:19:35 10° SSE 22:22:57 39° E 22:26:20 10° NNE
BREEZE M DEB (TANK) 2.5 22:21:53 10° SW 22:25:02 43° SSE 22:27:00 10° ENE
MOS 1 Rocket 4.2 22:23:01 10° SE 22:27:10 29° ENE 22:31:30 10° N
Cosmos 405 Rocket 2.3 22:24:08 10° N 22:27:20 53° ENE 22:30:30 10° SSE
Cosmos 2279 Rocket 4.0 22:27:13 10° S 22:33:22 71° E 22:39:34 10° NNE
YAOGAN 1 4.2 22:32:18 10° E 22:34:23 13° ENE 22:36:28 10° NNE
Cosmos 1356 Rocket 4.1 22:31:19 10° SSW 22:35:16 55° WNW 22:39:17 10° N
Cosmos 1092 Rocket 4.5 22:31:51 10° NNW 22:37:56 65° W 22:43:58 10° S
SJ-12 4.1 22:36:22 10° SE 22:39:53 40° ENE 22:43:27 10° N
Cosmos 1570 Rocket 4.0 22:34:45 10° NNW 22:40:07 77° ENE 22:45:25 10° SSE
Cosmos 1933 4.4 22:39:06 10° SE 22:42:06 22° E 22:44:57 11° NE
Cosmos 1980 Rocket 4.0 22:40:30 10° ESE 22:42:11 11° E 22:43:07 11° E
IRS-P3 4.5 22:38:23 10° SE 22:43:21 42° ENE 22:48:19 10° N
Cosmos 2180 Rocket 4.5 22:40:47 10° S 22:46:47 63° E 22:52:51 10° NNE
Cosmos 836 Rocket 4.4 22:42:32 10° NNW 22:47:48 80° ENE 22:53:03 10° SSE
Cosmos 1486 Rocket 4.0 22:44:38 10° S 22:49:47 68° ESE 22:55:00 10° NNE
Cosmos 2228 4.0 22:46:42 10° SSW 22:50:46 47° WNW 22:54:54 10° N
CZ-4C R/B 3.3 22:44:21 10° NNW 22:50:55 45° NE 22:58:59 10° ESE
IRIDIUM 106 4.3 22:51:34 10° N 22:56:45 60° E 23:01:53 10° SSE
Cosmos 1825 Rocket 4.3 22:53:27 10° NNE 22:57:15 29° ENE 23:01:00 10° SE
Cosmos 2263 Rocket 3.5 22:53:37 10° N 22:57:31 18° NE 22:58:58 17° ENE
Cosmos 1758 Rocket 3.6 22:54:21 10° N 22:58:41 83° W 23:02:56 10° S
Cosmos 2098 Rocket 2.9 22:55:08 10° S 22:58:54 89° W 23:03:26 10° N
USA 290 2.6 22:56:27 10° N 22:59:35 41° ENE 23:02:41 10° SE
Cosmos 2360 4.2 22:55:10 10° SSW 23:00:53 82° ESE 23:06:38 10° NNE
CORIOLIS 4.4 22:56:09 10° S 23:01:28 73° WSW 23:06:49 10° NNW
CZ-2D R/B 2.6 23:01:42 10° SSE 23:04:49 88° E 23:07:59 10° NNW
Cosmos 773 Rocket 4.0 22:59:39 10° NNW 23:04:53 89° ENE 23:10:08 10° SSE
Cosmos 2227 Rocket 2.8 23:02:20 10° N 23:07:26 33° NE 23:12:30 10° ESE
ARIANE 5 R/B 2.5 23:02:41 10° SSE 23:07:43 86° WSW 23:12:51 10° NNW
NOSS 2-2 (D) 4.3 23:07:54 10° WSW 23:10:59 32° NW 23:13:08 14° NNE
AQUARIUS 4.0 23:06:42 10° SSE 23:11:06 80° ENE 23:15:31 10° N
SPOT 1/Viking Rocket 3.7 23:06:37 10° SE 23:11:35 49° ENE 23:16:36 10° N
Cosmos 2266 Rocket 3.9 23:05:55 10° N 23:12:06 73° E 23:18:08 10° SSE
Cosmos 1607 3.9 23:06:41 10° NNW 23:12:54 65° NE 23:19:09 10° SE
Cosmos 2208 Rocket 4.2 23:09:10 10° NNW 23:14:19 75° WSW 23:19:29 10° SSE
SL-16 R/B 3.9 23:09:24 10° N 23:15:01 37° WNW 23:20:36 10° SW
CENTAUR R/B 4.0 23:10:38 10° W 23:15:44 29° NNW 23:21:54 10° NNE
Cosmos 990 Rocket 4.3 23:12:17 10° S 23:17:06 44° ESE 23:20:05 22° NE
ATLAS CENTAUR R/B 0.5 23:15:17 10° NW 23:18:32 89° ENE 23:21:23 12° SE
USA 238 DEB 4.4 23:14:00 10° SSE 23:18:58 27° ESE 23:20:47 24° E
USA 238 4.4 23:14:08 10° SSE 23:19:05 27° ESE 23:20:51 24° E
Cosmos 1743 2.9 23:16:26 10° NNW 23:19:38 55° W 23:22:48 10° S
NOSS 2-2 (E) 4.2 23:17:49 10° WSW 23:20:55 32° NW 23:22:39 18° N
BlueWalker 3 1.8 23:18:14 10° WNW 23:21:52 81° SW 23:24:06 22° SE
NOSS 2-3 (C) 4.5 23:20:24 10° S 23:22:42 21° SE 23:22:42 21° SE
Cosmos 1697 Rocket 2.7 23:18:02 10° S 23:23:31 59° ESE 23:27:11 21° NE
SMAP 4.5 23:22:21 10° SSW 23:26:43 41° W 23:31:08 10° NNW
SAR-Lupe-3 3.9 23:26:07 44° NNW 23:26:43 65° WNW 23:29:13 10° SSW
Cosmos 2151 3.3 23:23:54 10° NNW 23:28:01 66° W 23:32:08 10° S
SOZ 4.0 23:26:20 10° WSW 23:28:51 55° NW 23:28:51 55° NW
Cosmos 1606 Rocket 3.4 23:24:36 10° S 23:28:58 75° E 23:32:53 13° NNE
USA 215 4.2 23:26:29 22° NE 23:29:18 31° NNE 23:34:52 10° NW
Cosmos 1461 2.6 23:26:41 10° SW 23:30:33 87° WNW 23:32:05 36° NNE
Gbstr 26 Del rocket 2.9 23:26:53 10° SW 23:30:51 54° SE 23:31:38 44° E
Meteor 1-20 Rocket 4.3 23:27:27 10° NNW 23:32:55 75° W 23:38:21 10° S
Cosmos 1076 Rocket 3.7 23:32:18 10° N 23:36:28 47° ENE 23:40:37 10° SSE
Resurs 1-3 3.6 23:32:26 10° SSE 23:36:37 53° ENE 23:40:49 10° N
Okean 1-7 Rocket 3.8 23:36:38 10° NNW 23:41:01 69° W 23:45:20 10° S
Cosmos 783 Rocket 4.4 23:36:07 10° NNW 23:41:27 86° ENE 23:46:45 10° SSE
Lacrosse 5 rocket 3.4 23:40:13 10° NW 23:42:12 14° NNW 23:42:52 13° N
PSLV R/B 3.9 23:48:40 10° SSE 23:53:51 43° N 23:56:41 10° N
SKYMED 2 3.9 23:51:59 18° N 23:55:08 63° WNW 23:59:25 10° SSW
COSMO-SKYMED 1 2.3 23:54:32 58° NNE 23:55:19 88° ESE 23:59:25 10° SSW
